Probability
3 4 10 20 29 37 41 40 37 36 41 46 43 33 25 19 13 6 2 0 0 0 1 2 2 2 1 0 0 0 0 0 0 0 0 0 0 0 0 0 0 0 0
2 3 8 16 24 31 38 39 38 38 43 49 49 43 35 26 17 9 4 1 0 0 0 1 1 1 0 0 0 0 0 0 0 0 0 0 0 0 0 0 0 0 0
2 3 6 10 16 23 30 35 37 38 42 47 51 49 41 31 19 12 10 6 3 1 1 0 1 1 0 0 0 0 0 0 0 0 0 0 0 0 0 0 0 0 0
2 3 4 6 10 16 22 26 30 33 35 41 46 45 39 31 24 20 18 12 6 3 2 2 3 2 1 2 2 2 1 0 0 0 0 0 0 0 0 0 0 0 0
1 1 2 3 5 10 14 17 22 26 29 35 40 39 36 33 31 29 26 21 14 9 6 6 5 4 4 5 5 3 1 0 0 0 0 0 0 0 0 0 0 0 0
0 0 1 1 3 6 9 10 14 18 23 29 34 35 35 35 34 32 30 28 24 19 14 10 8 7 6 6 6 5 2 1 1 0 0 0 0 0 0 0 0 0 0
0 0 0 0 1 3 6 7 8 10 15 21 26 30 32 33 33 31 29 29 29 26 20 16 13 12 10 7 7 7 6 3 2 1 0 0 0 0 0 0 0 0 0
0 0 0 0 0 2 5 6 6 6 8 12 17 20 25 28 29 28 27 27 26 24 21 18 17 16 13 8 8 10 8 5 3 1 0 0 0 0 0 0 0 0 0
0 0 0 0 0 1 3 5 5 5 5 6 9 12 16 19 19 20 21 21 19 17 16 15 13 12 10 8 9 9 7 6 5 3 1 0 0 0 0 0 0 0 0
0 0 0 0 0 1 3 4 4 4 4 4 5 8 10 11 11 12 13 13 13 11 10 8 6 6 6 6 6 6 5 4 4 4 2 1 0 0 0 0 0 0 0
0 0 0 0 0 1 2 3 3 3 3 4 5 6 8 8 8 8 7 7 7 7 6 4 2 2 3 3 3 3 2 1 2 3 2 1 0 0 0 0 0 0 0
0 0 0 0 0 0 1 2 3 3 4 4 5 5 6 6 6 5 4 3 3 3 4 3 1 1 1 1 1 1 0 0 0 1 1 0 0 0 0 0 0 0 0
0 0 0 0 0 0 0 1 2 2 3 3 3 3 2 2 2 1 1 1 1 1 2 2 1 0 0 0 0 0 0 0 0 0 0 0 0 0 0 0 0 0 0
0 0 0 0 0 0 0 0 1 1 1 1 1 1 0 0 0 0 0 0 0 0 1 1 1 0 0 0 0 0 0 0 0 0 0 0 0 0 0 0 0 0 0
0 0 0 0 0 0 0 0 0 0 0 0 0 0 0 0 0 0 0 0 0 0 0 0 0 0 0 0 0 0 0 0 0 0 0 0 0 0 0 0 0 0 0
0 0 0 0 0 0 0 0 0 0 0 0 0 0 0 0 0 0 0 0 0 0 0 0 0 0 0 0 0 0 0 0 0 0 0 0 0 0 0 0 0 0 0
0 0 0 0 0 0 0 0 0 0 0 0 0 0 0 0 0 0 0 0 0 0 0 0 0 0 0 0 0 0 0 0 0 0 0 0 0 0 0 0 0 0 0
0 0 0 0 0 0 0 0 0 0 0 0 0 0 0 0 0 0 0 0 0 0 0 0 0 0 0 0 0 0 0 0 0 0 0 0 0 0 0 0 0 0 0
0 0 0 0 0 0 0 0 0 0 0 0 0 0 0 0 0 0 0 0 0 0 0 0 0 0 0 0 0 0 0 0 0 0 0 0 0 0 0 0 0 0 0
0 0 0 0 0 0 0 0 0 0 0 0 0 0 0 0 0 0 0 0 0 0 0 0 0 0 0 0 0 0 0 0 0 0 0 0 0 0 0 0 0 0 0
0 0 0 0 0 0 0 0 0 0 0 0 0 0 0 0 0 0 0 0 0 0 0 0 0 0 0 0 0 0 0 0 0 0 0 0 0 0 0 0 0 0 0
0 0 0 0 0 0 0 0 0 0 0 0 0 0 0 0 0 0 0 0 0 0 0 0 0 0 0 0 0 0 0 0 0 0 0 0 0 0 0 0 0 0 0
0 0 0 0 0 0 0 0 0 0 0 0 0 0 0 0 0 0 0 0 0 0 0 0 0 0 0 0 0 0 0 0 0 0 0 0 0 0 0 0 0 0 0
0 0 0 0 0 0 0 0 0 0 0 0 0 0 0 0 0 0 0 0 0 0 0 0 0 0 0 0 0 0 0 0 0 0 0 0 0 0 0 0 0 0 0
0 0 0 0 0 0 0 0 0 0 0 0 0 0 0 0 0 0 0 0 0 0 0 0 0 0 0 0 0 0 0 0 0 0 0 0 0 0 0 0 0 0 0
0 0 0 0 0 0 0 0 0 0 0 0 0 0 0 0 0 0 0 0 0 0 0 0 0 0 0 0 0 0 0 0 0 0 0 0 0 0 0 0 0 0 0
Wind_Speed
9 7 6 6 7 8 10 11 11 11 9 7 7 6 6 6 6 5 7 8 8 9 8 6 7 7 7 8 8 7 7 6 5 5 6 7 9 9 7 7 7 7 7
10 8 6 6 7 8 9 10 10 10 10 8 7 5 5 5 5 5 6 8 8 8 7 8 7 7 7 8 8 8 5 5 5 5 5 5 5 6 6 5 5 6 5
12 10 8 7 6 7 8 8 9 9 9 9 5 4 3 3 4 6 6 7 8 8 8 9 8 8 8 7 9 9 9 7 6 7 6 5 5 3 3 4 4 4 4
11 10 8 8 7 6 6 7 7 8 8 8 8 8 7 7 7 5 5 6 7 7 7 8 8 8 7 8 8 8 8 8 7 6 7 8 6 5 4 3 3 3 4
12 11 9 8 6 5 5 5 6 7 7 8 9 9 8 6 4 5 6 6 6 6 6 7 7 7 7 8 8 7 8 7 7 6 5 7 7 7 6 7 4 3 3
12 10 8 6 5 5 5 5 6 6 6 8 8 9 9 8 7 7 6 5 4 4 6 6 6 6 6 7 7 7 8 7 8 6 5 5 5 6 7 8 7 5 3
10 10 9 8 7 6 6 6 7 6 6 7 7 7 8 8 9 7 7 6 4 4 5 5 5 5 5 6 6 6 6 7 7 7 6 6 6 5 5 6 7 6 3
9 9 8 7 7 7 7 7 7 6 6 6 5 5 5 4 4 5 4 4 3 3 3 4 4 5 5 5 5 4 5 5 6 6 6 4 4 4 4 5 5 5 4
7 7 7 7 6 7 7 7 7 6 5 5 5 4 4 3 3 3 3 2 2 2 3 3 4 4 4 4 4 4 4 4 3 3 3 3 2 2 3 3 4 4 5
6 6 6 6 6 6 6 6 6 6 5 4 4 3 3 2 2 2 2 2 2 2 2 2 3 2 2 3 3 3 2 3 2 1 2 2 1 1 1 1 2 3 4
4 5 5 6 7 7 6 6 5 5 5 4 4 4 3 3 3 2 2 1 1 1 2 1 1 1 1 1 2 2 2 2 2 1 2 1 1 1 0 0 0 0 1
4 5 6 7 7 7 6 6 5 5 4 4 4 3 3 3 3 2 2 1 1 1 1 1 1 1 1 1 2 2 2 2 2 1 2 2 2 2 2 1 1 1 0
5 5 6 6 7 7 6 6 5 4 4 4 4 4 3 3 3 3 2 2 2 2 2 2 2 2 2 2 2 2 2 3 2 2 2 2 2 3 2 2 2 1 1
5 6 6 6 6 6 6 5 5 4 4 4 4 4 3 3 3 3 3 2 2 2 2 3 2 2 2 2 3 3 4 4 4 4 3 3 2 3 3 2 2 2 2
6 6 6 6 6 6 6 5 5 5 5 5 4 4 3 3 3 3 3 3 3 3 3 3 3 3 2 2 3 4 4 5 5 4 4 4 5 5 3 2 2 2 2
7 7 7 7 7 7 7 6 6 5 5 5 5 4 4 4 4 3 3 3 3 3 3 3 3 3 3 5 5 4 4 4 5 5 4 5 5 6 6 6 4 3 1
7 7 8 8 7 7 7 7 6 6 6 5 5 5 5 5 4 4 4 3 3 3 3 3 3 4 5 6 6 5 4 4 4 4 4 3 3 4 3 5 5 5 4
7 7 7 7 6 6 6 6 6 6 6 6 6 6 6 5 5 4 4 4 3 3 3 3 3 4 5 6 7 7 4 4 4 3 3 3 3 2 2 2 2 2 2
4 4 4 5 5 6 6 7 6 6 6 6 6 6 6 6 6 5 5 4 3 3 3 3 3 4 5 6 7 5 3 3 3 3 2 2 2 4 2 2 1 1 1
1 2 3 4 5 5 6 7 6 7 7 6 6 6 6 6 6 6 5 4 4 4 4 3 3 3 4 5 6 5 2 3 3 2 2 2 2 3 2 1 1 1 0
2 2 3 3 3 5 6 6 6 6 5 5 5 6 6 6 6 5 5 5 4 4 4 4 3 3 4 5 6 6 3 3 3 2 2 2 3 3 3 2 2 1 2
3 2 2 2 3 4 5 5 5 4 4 5 5 6 6 5 5 6 5 5 5 5 5 4 4 3 3 4 6 6 5 4 3 2 2 2 4 3 3 3 3 3 3
2 2 2 2 2 3 4 4 3 4 5 5 6 6 6 6 6 6 6 5 5 5 5 4 4 4 3 4 7 7 7 6 3 2 3 3 4 4 3 4 4 4 3
2 1 1 0 1 2 3 3 3 4 5 6 6 5 6 6 6 5 5 5 6 5 5 5 5 4 4 4 4 4 5 6 4 3 4 5 5 4 4 4 3 3 3
1 1 1 1 1 2 2 3 3 5 6 6 5 5 6 6 6 5 5 6 6 6 6 5 5 5 5 7 9 6 5 4 4 4 3 3 3 4 4 3 4 4 4
1 1 2 2 2 2 3 3 3 5 6 5 5 5 5 5 5 5 4 7 6 8 10 8 7 6 7 7 10 11 10 9 8 6 5 5 5 5 4 4 4 4 4
Wind_Direction
214 205 201 199 196 200 204 204 201 199 190 185 188 193 201 200 202 206 210 208 209 207 211 216 220 214 219 223 225 226 232 235 239 253 262 256 247 247 244 244 248 245 243
211 205 198 193 191 192 200 202 202 196 192 192 192 197 198 204 207 203 212 212 212 209 209 216 218 214 221 226 226 220 227 230 217 234 261 274 255 227 232 237 241 250 243
218 210 202 196 191 191 196 199 197 192 192 192 186 175 180 185 197 207 210 214 212 212 213 220 223 222 223 226 224 218 222 230 221 223 235 253 264 286 214 222 231 238 240
221 216 210 204 196 193 190 199 194 191 191 190 192 196 202 210 211 206 208 210 213 216 219 223 225 226 225 231 230 224 223 231 234 224 234 248 273 272 271 220 218 234 249
222 217 213 209 203 189 187 193 191 192 189 193 198 204 213 219 211 204 209 211 210 215 219 224 225 229 229 233 234 230 228 228 235 230 223 234 243 247 257 266 248 227 228
223 218 212 204 200 185 181 188 186 189 191 194 200 206 211 211 208 209 211 212 210 212 218 223 227 232 232 234 234 233 231 231 235 236 229 226 229 228 233 250 256 253 231
218 212 206 201 196 188 183 185 184 185 188 193 201 209 216 217 217 216 216 215 213 213 218 220 226 231 236 238 237 236 236 233 233 234 234 235 239 242 240 250 259 256 233
217 212 205 200 193 186 181 178 181 179 180 187 192 199 206 213 218 219 219 217 217 215 218 223 229 235 238 237 234 234 235 235 235 239 238 237 240 240 237 246 254 255 237
214 208 196 189 184 179 178 174 171 168 168 172 175 177 183 190 193 197 206 211 209 209 213 217 226 232 239 241 236 232 234 231 235 241 240 242 253 256 253 251 248 250 251
205 195 182 172 166 164 162 159 161 158 154 154 149 148 148 150 159 171 181 188 186 195 209 215 221 224 231 233 225 223 226 212 209 216 217 223 234 250 265 251 249 253 259
188 179 167 160 155 154 156 152 152 149 147 146 143 142 136 136 142 144 150 160 163 181 196 195 196 198 203 208 204 199 197 190 173 165 169 158 145 143 103 101 137 239 248
171 165 159 158 158 158 157 155 156 152 148 146 146 139 134 134 135 129 119 122 130 123 126 137 146 131 132 149 171 158 154 161 155 144 137 126 112 108 89 94 97 91 31
168 165 165 167 166 164 161 161 160 155 150 149 146 141 139 137 130 120 112 108 110 110 106 111 113 106 98 103 110 120 117 109 102 99 111 113 122 112 93 89 89 83 77
183 179 176 176 174 171 169 167 163 157 152 150 150 149 145 137 128 119 113 108 108 108 98 90 89 92 95 103 112 116 114 105 94 86 84 88 101 110 112 100 95 93 97
200 194 191 186 181 178 176 173 168 163 160 160 160 157 147 140 136 131 123 118 114 108 106 107 103 100 100 109 120 118 117 116 108 96 88 81 81 83 87 91 98 102 104
216 209 203 200 194 189 185 180 177 170 170 171 169 160 157 154 152 146 138 134 128 121 119 120 118 111 103 115 119 124 123 122 121 114 104 97 92 90 89 85 74 65 81
225 217 211 207 203 196 189 185 179 171 175 177 173 170 168 165 162 155 152 148 139 130 128 123 117 112 114 126 125 122 122 122 121 123 122 106 97 98 102 95 89 75 62
228 221 214 209 202 192 185 180 173 174 179 181 180 177 175 172 167 165 164 157 148 145 140 133 130 125 123 128 126 124 117 114 119 124 131 130 127 112 110 103 85 77 73
238 226 214 203 191 184 177 173 176 181 186 190 187 183 180 177 175 175 171 162 156 153 152 149 150 145 138 140 140 138 133 132 132 129 133 141 147 142 142 140 134 131 108
226 198 180 173 175 171 169 175 182 189 198 196 188 182 182 182 182 179 173 169 166 164 158 154 161 162 158 158 162 165 160 156 154 155 157 170 183 166 177 201 201 223 195
72 122 144 153 158 160 171 184 191 203 199 186 181 180 182 183 180 175 174 171 169 165 165 163 168 178 180 176 181 187 190 184 178 183 191 187 191 201 205 241 251 252 264
64 90 117 122 138 164 178 191 204 196 179 178 181 180 180 176 174 173 173 174 173 173 176 177 181 188 193 200 195 197 200 199 199 207 209 201 203 220 228 243 243 231 243
48 56 92 115 144 180 197 206 199 178 177 181 185 182 179 178 178 179 178 177 183 188 190 190 195 196 199 205 211 208 204 207 218 217 219 224 218 226 234 240 238 228 235
29 36 69 143 187 201 218 220 195 184 184 188 186 183 183 184 183 185 188 190 193 195 197 200 203 201 203 206 204 206 206 207 214 218 217 219 219 234 243 238 231 234 241
350 329 275 265 263 239 232 220 199 191 193 194 192 190 192 190 190 195 202 204 206 204 203 206 204 203 211 211 206 203 206 206 205 201 211 218 220 226 229 231 234 233 231
311 298 287 279 273 257 243 224 206 198 197 198 199 197 194 194 195 194 204 217 221 218 221 221 216 220 226 215 213 215 218 218 214 215 227 230 231 235 238 238 237 235 235